Time,TemperatureF,DewpointF,PressureIn,WindDirection,WindDirectionDegrees,WindSpeedMPH,WindSpeedGustMPH,Humidity,HourlyPrecipIn,Conditions,Clouds,dailyrainin,SolarRadiationWatts/m^2,SoftwareType,DateUTC
2013-02-17 00:01:00,25.0,1.0,30.30,NNW,348,7.0,11.0,35,0.00,,,0.00,0.000000,,2013-02-17 07:01:00,
2013-02-17 00:11:00,25.0,1.0,30.30,NNW,348,7.0,11.0,35,0.00,,,0.00,0.000000,,2013-02-17 07:11:00,
2013-02-17 00:42:00,25.0,1.0,30.27,North,350,6.0,10.0,35,0.00,,,0.00,0.000000,,2013-02-17 07:42:00,
2013-02-17 00:52:00,25.0,1.0,30.27,North,350,6.0,10.0,35,0.00,,,0.00,0.000000,,2013-02-17 07:52:00,
2013-02-17 01:01:00,25.0,1.0,30.27,North,350,6.0,10.0,35,0.00,,,0.00,0.000000,,2013-02-17 08:01:00,
2013-02-17 01:11:00,25.0,1.0,30.27,North,350,6.0,10.0,35,0.00,,,0.00,0.000000,,2013-02-17 08:11:00,
2013-02-17 01:42:00,25.0,-2.0,30.26,North,354,8.0,11.0,30,0.00,,,0.00,0.000000,,2013-02-17 08:42:00,
2013-02-17 01:52:00,25.0,-2.0,30.26,North,354,8.0,11.0,30,0.00,,,0.00,0.000000,,2013-02-17 08:52:00,
2013-02-17 02:01:00,25.0,-2.0,30.26,North,354,8.0,11.0,30,0.00,,,0.00,0.000000,,2013-02-17 09:01:00,
2013-02-17 02:11:00,25.0,-2.0,30.26,North,354,8.0,11.0,30,0.00,,,0.00,0.000000,,2013-02-17 09:11:00,
2013-02-17 02:42:00,28.0,-5.0,30.24,North,352,4.0,11.0,23,0.00,,,0.00,0.000000,,2013-02-17 09:42:00,
2013-02-17 02:52:00,28.0,-5.0,30.24,North,352,4.0,11.0,23,0.00,,,0.00,0.000000,,2013-02-17 09:52:00,
2013-02-17 03:01:00,28.0,-5.0,30.24,North,352,4.0,11.0,23,0.00,,,0.00,0.000000,,2013-02-17 10:01:00,
2013-02-17 03:42:00,29.0,-8.0,30.20,ENE,70,4.0,8.0,19,0.00,,,0.00,0.000000,,2013-02-17 10:42:00,
2013-02-17 03:52:00,29.0,-8.0,30.20,ENE,70,4.0,8.0,19,0.00,,,0.00,0.000000,,2013-02-17 10:52:00,
2013-02-17 04:01:00,29.0,-8.0,30.20,ENE,70,4.0,8.0,19,0.00,,,0.00,0.000000,,2013-02-17 11:01:00,
2013-02-17 04:42:00,29.0,-8.0,30.17,North,8,0.0,5.0,19,0.00,,,-99.99,0.000000,,2013-02-17 11:42:00,
2013-02-17 04:52:00,29.0,-8.0,30.17,North,8,0.0,5.0,19,0.00,,,-99.99,0.000000,,2013-02-17 11:52:00,
2013-02-17 05:02:00,29.0,-8.0,30.17,North,8,0.0,5.0,19,0.00,,,-99.99,0.000000,,2013-02-17 12:02:00,
2013-02-17 05:32:00,29.0,-8.0,30.14,North,355,4.0,7.0,19,0.00,,,0.00,0.000000,,2013-02-17 12:32:00,
2013-02-17 05:42:00,29.0,-8.0,30.14,North,355,4.0,7.0,19,0.00,,,0.00,0.000000,,2013-02-17 12:42:00,
2013-02-17 05:52:00,29.0,-8.0,30.14,North,355,4.0,7.0,19,0.00,,,0.00,0.000000,,2013-02-17 12:52:00,
2013-02-17 06:02:00,29.0,-8.0,30.14,North,355,4.0,7.0,19,0.00,,,0.00,0.000000,,2013-02-17 13:02:00,
2013-02-17 07:42:00,28.0,-10.0,30.09,South,169,0.0,10.0,18,-99.99,,,0.00,1.000000,,2013-02-17 14:42:00,
2013-02-17 07:53:00,28.0,-10.0,30.09,South,169,0.0,10.0,18,-99.99,,,0.00,1.000000,,2013-02-17 14:53:00,
2013-02-17 08:01:00,28.0,-10.0,30.09,South,169,0.0,10.0,18,-99.99,,,0.00,1.000000,,2013-02-17 15:01:00,
2013-02-17 08:42:00,31.0,-6.0,30.08,NW,325,6.0,10.0,19,0.00,,,0.00,117.000000,,2013-02-17 15:42:00,
2013-02-17 08:52:00,31.0,-6.0,30.08,NW,325,6.0,10.0,19,0.00,,,0.00,117.000000,,2013-02-17 15:52:00,
2013-02-17 09:01:00,31.0,-6.0,30.08,NW,325,6.0,10.0,19,0.00,,,0.00,117.000000,,2013-02-17 16:01:00,
2013-02-17 09:32:00,35.0,-7.0,30.07,NNW,344,5.0,13.0,16,0.00,,,0.00,297.000000,,2013-02-17 16:32:00,
2013-02-17 09:42:00,35.0,-7.0,30.07,NNW,344,5.0,13.0,16,0.00,,,0.00,297.000000,,2013-02-17 16:42:00,
2013-02-17 09:52:00,35.0,-7.0,30.07,NNW,344,5.0,13.0,16,0.00,,,0.00,297.000000,,2013-02-17 16:52:00,
2013-02-17 10:02:00,35.0,-7.0,30.07,NNW,344,5.0,13.0,16,0.00,,,0.00,297.000000,,2013-02-17 17:02:00,
2013-02-17 10:32:00,36.0,-9.0,30.03,NW,321,4.0,11.0,14,0.00,,,0.00,354.000000,,2013-02-17 17:32:00,
2013-02-17 10:42:00,36.0,-9.0,30.03,NW,321,4.0,11.0,14,0.00,,,0.00,354.000000,,2013-02-17 17:42:00,
2013-02-17 10:52:00,36.0,-9.0,30.03,NW,321,4.0,11.0,14,0.00,,,0.00,354.000000,,2013-02-17 17:52:00,
2013-02-17 11:01:00,36.0,-9.0,30.03,NW,321,4.0,11.0,14,0.00,,,0.00,354.000000,,2013-02-17 18:01:00,
2013-02-17 11:42:00,42.0,-4.0,30.01,NNW,338,5.0,15.0,14,0.00,,,0.00,800.000000,,2013-02-17 18:42:00,
2013-02-17 11:52:00,42.0,-4.0,30.01,NNW,338,5.0,15.0,14,0.00,,,0.00,800.000000,,2013-02-17 18:52:00,
2013-02-17 12:01:00,42.0,-4.0,30.01,NNW,338,5.0,15.0,14,0.00,,,0.00,800.000000,,2013-02-17 19:01:00,
2013-02-17 12:11:00,42.0,-4.0,30.01,NNW,338,5.0,15.0,14,0.00,,,0.00,800.000000,,2013-02-17 19:11:00,
2013-02-17 12:42:00,38.0,-4.0,29.96,NNW,333,10.0,15.0,16,0.00,,,0.00,613.000000,,2013-02-17 19:42:00,
2013-02-17 12:52:00,38.0,-4.0,29.96,NNW,333,10.0,15.0,16,0.00,,,0.00,613.000000,,2013-02-17 19:52:00,
2013-02-17 13:01:00,38.0,-4.0,29.96,NNW,333,10.0,15.0,16,0.00,,,0.00,613.000000,,2013-02-17 20:01:00,
2013-02-17 13:42:00,41.0,4.0,29.93,NNW,330,10.0,13.0,21,0.00,,,0.00,663.000000,,2013-02-17 20:42:00,
2013-02-17 13:52:00,41.0,4.0,29.93,NNW,330,10.0,13.0,21,0.00,,,0.00,663.000000,,2013-02-17 20:52:00,
2013-02-17 14:01:00,41.0,4.0,29.93,NNW,330,10.0,13.0,21,0.00,,,0.00,663.000000,,2013-02-17 21:01:00,
2013-02-17 14:11:00,41.0,4.0,29.93,NNW,330,10.0,13.0,21,0.00,,,0.00,663.000000,,2013-02-17 21:11:00,
2013-02-17 14:42:00,34.0,4.0,29.89,NW,326,18.0,22.0,28,0.00,,,0.00,576.000000,,2013-02-17 21:42:00,
2013-02-17 14:53:00,34.0,4.0,29.89,NW,326,18.0,22.0,28,0.00,,,0.00,576.000000,,2013-02-17 21:53:00,
2013-02-17 15:01:00,34.0,4.0,29.89,NW,326,18.0,22.0,28,0.00,,,0.00,576.000000,,2013-02-17 22:01:00,
2013-02-17 15:11:00,34.0,4.0,29.89,NW,326,18.0,22.0,28,0.00,,,0.00,576.000000,,2013-02-17 22:11:00,
2013-02-17 15:32:00,34.0,6.0,29.88,NW,308,16.0,27.0,30,0.00,,,0.00,487.000000,,2013-02-17 22:32:00,
2013-02-17 15:42:00,34.0,6.0,29.88,NW,308,16.0,27.0,30,0.00,,,0.00,487.000000,,2013-02-17 22:42:00,
2013-02-17 15:52:00,34.0,6.0,29.88,NW,308,16.0,27.0,30,0.00,,,0.00,487.000000,,2013-02-17 22:52:00,
2013-02-17 16:01:00,34.0,6.0,29.88,NW,308,16.0,27.0,30,0.00,,,0.00,487.000000,,2013-02-17 23:01:00,
2013-02-17 16:11:00,34.0,6.0,29.88,NW,308,16.0,27.0,30,0.00,,,0.00,487.000000,,2013-02-17 23:11:00,
2013-02-17 16:42:00,33.0,3.0,29.86,WNW,302,25.0,33.0,28,0.00,,,0.00,368.000000,,2013-02-17 23:42:00,
2013-02-17 16:52:00,33.0,3.0,29.86,WNW,302,25.0,33.0,28,0.00,,,0.00,368.000000,,2013-02-17 23:52:00,
2013-02-17 17:01:00,33.0,3.0,29.86,WNW,302,25.0,33.0,28,0.00,,,0.00,368.000000,,2013-02-18 00:01:00,
2013-02-17 17:11:00,33.0,3.0,29.86,WNW,302,25.0,33.0,28,0.00,,,0.00,368.000000,,2013-02-18 00:11:00,
2013-02-17 17:42:00,34.0,6.0,29.86,WNW,294,22.0,42.0,30,0.00,,,0.00,247.000000,,2013-02-18 00:42:00,
2013-02-17 17:52:00,34.0,6.0,29.86,WNW,294,22.0,42.0,30,0.00,,,0.00,247.000000,,2013-02-18 00:52:00,
2013-02-17 18:01:00,34.0,6.0,29.86,WNW,294,22.0,42.0,30,0.00,,,0.00,247.000000,,2013-02-18 01:01:00,
2013-02-17 18:11:00,34.0,6.0,29.86,WNW,294,22.0,42.0,30,0.00,,,0.00,247.000000,,2013-02-18 01:11:00,
2013-02-17 19:42:00,28.0,9.0,29.87,WNW,292,19.0,36.0,44,-99.99,,,0.00,0.000000,,2013-02-18 02:42:00,
2013-02-17 19:52:00,28.0,9.0,29.87,WNW,292,19.0,36.0,44,-99.99,,,0.00,0.000000,,2013-02-18 02:52:00,
2013-02-17 20:01:00,28.0,9.0,29.87,WNW,292,19.0,36.0,44,-99.99,,,0.00,0.000000,,2013-02-18 03:01:00,
2013-02-17 20:11:00,28.0,9.0,29.87,WNW,292,19.0,36.0,44,-99.99,,,0.00,0.000000,,2013-02-18 03:11:00,
2013-02-17 20:32:00,25.0,13.0,29.89,WNW,292,8.0,33.0,60,0.00,,,0.00,0.000000,,2013-02-18 03:32:00,
2013-02-17 20:42:00,25.0,13.0,29.89,WNW,292,8.0,33.0,60,0.00,,,0.00,0.000000,,2013-02-18 03:42:00,
2013-02-17 20:52:00,25.0,13.0,29.89,WNW,292,8.0,33.0,60,0.00,,,0.00,0.000000,,2013-02-18 03:52:00,
2013-02-17 21:01:00,25.0,13.0,29.89,WNW,292,8.0,33.0,60,0.00,,,0.00,0.000000,,2013-02-18 04:01:00,
2013-02-17 21:11:00,25.0,13.0,29.89,WNW,292,8.0,33.0,60,0.00,,,0.00,0.000000,,2013-02-18 04:11:00,
2013-02-17 21:42:00,23.0,16.0,29.90,NW,305,12.0,25.0,73,0.00,,,0.00,0.000000,,2013-02-18 04:42:00,
2013-02-17 21:52:00,23.0,16.0,29.90,NW,305,12.0,25.0,73,0.00,,,0.00,0.000000,,2013-02-18 04:52:00,
2013-02-17 22:01:00,23.0,16.0,29.90,NW,305,12.0,25.0,73,0.00,,,0.00,0.000000,,2013-02-18 05:01:00,
2013-02-17 22:11:00,23.0,16.0,29.90,NW,305,12.0,25.0,73,0.00,,,0.00,0.000000,,2013-02-18 05:11:00,
2013-02-17 22:32:00,20.0,6.0,29.92,NNW,328,13.0,26.0,53,0.00,,,0.00,0.000000,,2013-02-18 05:32:00,
2013-02-17 22:42:00,20.0,6.0,29.92,NNW,328,13.0,26.0,53,0.00,,,0.00,0.000000,,2013-02-18 05:42:00,
2013-02-17 22:52:00,20.0,6.0,29.92,NNW,328,13.0,26.0,53,0.00,,,0.00,0.000000,,2013-02-18 05:52:00,
2013-02-17 23:02:00,20.0,6.0,29.92,NNW,328,13.0,26.0,53,0.00,,,0.00,0.000000,,2013-02-18 06:02:00,
2013-02-17 23:11:00,20.0,6.0,29.92,NNW,328,13.0,26.0,53,0.00,,,0.00,0.000000,,2013-02-18 06:11:00,
2013-02-17 23:42:00,17.0,6.0,29.95,West,277,5.0,20.0,62,0.00,,,0.00,0.000000,,2013-02-18 06:42:00,
2013-02-17 23:52:00,17.0,6.0,29.95,West,277,5.0,20.0,62,0.00,,,0.00,0.000000,,2013-02-18 06:52:00,